Flag for Finland

Past Weather in Huittinen, Finland — Yesterday and Last 2 Weeks

Now
64 °F

Overcast.


Feels Like: 64 °F
Forecast: 70 / 54 °F
Wind: 3 mph from East

Location: Tampere / Pirkkala
Current Time: Aug 12, 2020 at 7:17:14 pm
Latest Report: Aug 12, 2020 at 6:00 pm
Visibility: 47 mi
Pressure30.15 "Hg
Humidity: 57%
Dew Point: 48 °F
Location of HuittinenLocation

Past Weather in Huittinen — Graph

°F

Huittinen Temperature Yesterday

Maximum temperature yesterday: 66 °F (at 5:00 pm)
Minimum temperature yesterday: 48 °F (at 5:00 am)
Average temperature yesterday: 59 °F

High & Low Weather Summary for the Past Weeks

 TemperatureHumidityPressure
High81 °F (Aug 8, 6:00 pm)100% (Jul 29, 4:00 am)30.31 "Hg (Jul 29, 4:00 am)
Low46 °F (Aug 1, 6:00 am)41% (Aug 8, 2:00 pm)29.56 "Hg (Jul 30, 3:00 pm)
Average62 °F75%29.98 "Hg
* Reported Jul 28 5:00 pm — Aug 12 5:00 pm, Huittinen. Weather by CustomWeather, © 2020

Note: Actual official high and low records may vary slightly from our data, if they occured in-between our weather recording intervals... More about our weather records

Huittinen Weather History for the Previous 24 Hours

Scroll right to see more
 ConditionsComfort  
Time TempWeatherWind HumidityBarometerVisibility
5:00 pm
Wed, Aug 12
64 °FOvercast.3 mph57%30.16 "Hg47 mi
4:00 pm64 °FOvercast.3 mph54%30.18 "Hg47 mi
3:00 pm64 °FOvercast.1 mph53%30.19 "Hg47 mi
2:00 pm64 °FPartly sunny.1 mph50%30.21 "Hg40 mi
1:00 pm64 °FOvercast.2 mph53%30.22 "Hg40 mi
12:00 pm61 °FPassing clouds.2 mph57%30.23 "Hg47 mi
11:00 am60 °FOvercast.3 mph56%30.25 "Hg47 mi
10:00 am58 °FOvercast.3 mph59%30.26 "Hg47 mi
9:00 am57 °FOvercast.2 mph71%30.27 "Hg47 mi
8:00 am56 °FOvercast.1 mph69%30.27 "Hg47 mi
7:00 am55 °FOvercast.1 mph80%30.28 "Hg47 mi
6:00 am54 °FOvercast.1 mph79%30.28 "Hg47 mi
5:00 am53 °FOvercast.1 mph85%30.28 "Hg47 mi
4:00 am54 °FOvercast.1 mph85%30.29 "Hg47 mi
3:00 am55 °FOvercast.1 mph80%30.29 "Hg47 mi
2:00 am57 °FOvercast.1 mph67%30.29 "Hg47 mi
1:00 am57 °FOvercast.1 mph70%30.29 "Hg47 mi
12:00 am57 °FOvercast.1 mph68%30.28 "Hg47 mi
11:00 pm
Tue, Aug 11
59 °FOvercast.1 mph59%30.28 "Hg47 mi
10:00 pm60 °FOvercast.2 mph60%30.27 "Hg47 mi
9:00 pm62 °FOvercast.3 mph51%30.27 "Hg47 mi
8:00 pm64 °FPartly sunny.5 mph48%30.27 "Hg47 mi
7:00 pm65 °FSunny.5 mph45%30.27 "Hg47 mi
Weather by CustomWeather, © 2020

See weather overview